sat.trackr.live / text

‹ back to catalog

HAIYANG-3A

NORAD 58349 · 2023-176A

PAYLOAD ACTIVE UNKNOWN

§ Identity

Operator
Country
PRC
Launch date
2023-11-16
Launch site
JSC
Launch vehicle
Mass (kg)
RCS (m²)

External: N2YO · Heavens-Above · Gunter

§ Orbital elements

Epoch: 2026-09-21T22:28:08.672736Z

Period
100.41 min
Inclination
98.5397°
Eccentricity
0.0010714
Mean motion
14.34143882 rev/d
Perigee alt
770.2 km
Apogee alt
785.6 km
Semi-major
7,156.0 km
B*
2.3087e-5
RAAN
341.7677°
Arg perigee
97.6947°
Mean anomaly
262.5455°
Rev number
14,918

§ Raw data

HAIYANG-3A1 58349U 23176A   26264.93621149  .00000021  00000+0  23087-4 0  99992 58349  98.5397 341.7677 0010714  97.6947 262.5455 14.34143882149182

JSON: /api/v1/satellites/58349 · /tle

For live sub-satellite position, see the globe view (requires WebGL).

§ Visibility from observer

Set your observer location to see the next 7 days of passes ≥ 10°. The values pass through the URL so the page stays shareable.

No JS? Fill the form by hand. The geolocation button needs JavaScript.

§ Radio — SatNOGS DB

ModeDescriptionDownlinkUplink
BPSK S-band telemetry 2.227 GHz

1 transmitter · refreshed weekly from db.satnogs.org